St. Paul Lake Elmo, MN

9:28 AM CST on November 20, 2019 (GMT -0600)
St. Paul Lake Elmo

Weather History for K21D - September, 2019

Change the Weather History Date:

Thursday, September 5, 2019

  Actual Average (WUND) Record (WUND)
Temperature  
Mean Temperature 62 °F -  
Max Temperature 73 °F - - (-1)
Min Temperature 51 °F - - (-1)
Degree Days  
Heating Degree Days 3    
Growing Degree Days 12 (Base 50)    
Moisture  
Dew Point 58 °F    
Average Humidity 83    
Maximum Humidity 100    
Minimum Humidity 65    
Precipitation  
Precipitation 0.00 in - - ()
Sea Level Pressure  
Sea Level Pressure 30.00 in    
Wind  
Wind Speed 5 mph (WSW)    
Max Wind Speed 20 mph    
Max Gust Speed 25 mph    
Visibility 10 miles    
Events Thunderstorm    
Averages and records for this station are not official NWS values.
T = Trace of Precipitation, MM = Missing Value Source: NWS Daily Summary

Daily Weather History Graph

Daily Weather History Graph

Search for Another Location

Airport or City:

Astronomy

Sep. 05, 2019 Rise Set
Actual Time 6:37 AM CDT 7:41 PM CDT
Civil Twilight 6:07 AM CDT 8:11 PM CDT
Nautical Twilight 5:31 AM CDT 8:47 PM CDT
Astronomical Twilight 4:53 AM CDT 9:25 PM CDT
Moon 2:03 PM CDT (9/5) 11:38 PM CDT (9/5)
Length of Visible Light 14h 03m
Length of Day
13h 03m
Waxing Crescent, 45% of the Moon is Illuminated
Sep 5
Waxing Crescent
Sep 5
First Quarter
Sep 13
Full
Sep 21
Last Quarter
Sep 28
New

Hourly Weather History & Observations

Time (CDT) Temp. Dew Point Humidity Pressure Visibility Wind Dir Wind Speed Gust Speed Precip Events Conditions
12:18 AM 53.6 °F 51.8 °F 94% 30.12 in 10.0 mi WSW 3.5 mph - N/A   Unknown
12:37 AM 55.4 °F 51.8 °F 88% 30.12 in 10.0 mi WSW 4.6 mph - N/A   Unknown
12:56 AM 53.6 °F 51.8 °F 94% 30.12 in 10.0 mi WSW 3.5 mph - N/A   Unknown
1:15 AM 53.6 °F 51.8 °F 94% 30.11 in 10.0 mi Calm Calm - N/A   Unknown
1:16 AM 53.6 °F 51.8 °F 94% 30.11 in 10.0 mi Calm Calm - N/A   Unknown
1:35 AM 53.6 °F 51.8 °F 94% 30.12 in 10.0 mi Calm Calm - N/A   Unknown
1:39 AM 53.6 °F 51.8 °F 94% 30.12 in 10.0 mi Calm Calm - N/A   Unknown
1:57 AM 53.6 °F 51.8 °F 94% 30.13 in 10.0 mi Calm Calm - N/A   Unknown
2:15 AM 51.8 °F 51.8 °F 100% 30.12 in 10.0 mi Calm Calm - N/A   Unknown
2:35 AM 53.6 °F 51.8 °F 94% 30.12 in 10.0 mi Calm Calm - N/A   Unknown
2:36 AM 53.6 °F 51.8 °F 94% 30.12 in 10.0 mi Calm Calm - N/A   Unknown
2:55 AM 53.6 °F 51.8 °F 94% 30.12 in 10.0 mi WSW 3.5 mph - N/A   Unknown
3:18 AM 53.6 °F 51.8 °F 94% 30.11 in 10.0 mi WSW 4.6 mph - N/A   Unknown
3:55 AM 53.6 °F 53.6 °F 100% 30.10 in 10.0 mi WSW 4.6 mph - N/A   Unknown
4:15 AM 53.6 °F 51.8 °F 94% 30.10 in 10.0 mi WSW 5.8 mph - N/A   Unknown
4:35 AM 53.6 °F 51.8 °F 94% 30.09 in 10.0 mi Calm Calm - N/A   Unknown
4:39 AM 53.6 °F 51.8 °F 94% 30.09 in 10.0 mi Calm Calm - N/A   Unknown
4:58 AM 53.6 °F 51.8 °F 94% 30.08 in 10.0 mi WSW 5.8 mph - N/A   Unknown
5:15 AM 53.6 °F 51.8 °F 94% 30.08 in 10.0 mi WSW 5.8 mph - N/A   Unknown
5:35 AM 53.6 °F 51.8 °F 94% 30.08 in 10.0 mi WSW 4.6 mph - N/A   Unknown
5:36 AM 53.6 °F 51.8 °F 94% 30.08 in 10.0 mi WSW 4.6 mph - N/A   Unknown
5:55 AM 53.6 °F 51.8 °F 94% 30.08 in 10.0 mi Calm Calm - N/A   Unknown
5:56 AM 53.6 °F 51.8 °F 94% 30.08 in 10.0 mi WSW 3.5 mph - N/A   Unknown
6:19 AM 53.6 °F 51.8 °F 94% 30.08 in 10.0 mi Calm Calm - N/A   Unknown
6:36 AM 53.6 °F 51.8 °F 94% 30.08 in 10.0 mi WSW 3.5 mph - N/A   Unknown
6:55 AM 53.6 °F 51.8 °F 94% 30.07 in 10.0 mi WSW 5.8 mph - N/A Thunderstorm Unknown
7:15 AM 53.6 °F 53.6 °F 100% 30.06 in 10.0 mi WSW 5.8 mph - N/A   Unknown
7:35 AM 55.4 °F 53.6 °F 94% 30.07 in 10.0 mi WSW 4.6 mph - N/A   Unknown
7:40 AM 55.4 °F 53.6 °F 94% 30.06 in 10.0 mi WSW 5.8 mph - N/A   Unknown
7:57 AM 55.4 °F 53.6 °F 94% 30.05 in 10.0 mi WSW 4.6 mph - N/A   Unknown
8:15 AM 59.0 °F 53.6 °F 82% 30.06 in 10.0 mi WSW 3.5 mph - N/A   Unknown
8:35 AM 59.0 °F 55.4 °F 88% 30.05 in 10.0 mi WSW 6.9 mph - N/A   Unknown
8:36 AM 59.0 °F 55.4 °F 88% 30.05 in 10.0 mi WSW 6.9 mph - N/A   Unknown
8:55 AM 60.8 °F 55.4 °F 82% 30.06 in 10.0 mi WSW 4.6 mph - N/A   Unknown
9:18 AM 60.8 °F 55.4 °F 82% 30.08 in 10.0 mi WSW 3.5 mph - N/A   Unknown
9:36 AM 60.8 °F 55.4 °F 82% 30.09 in 10.0 mi WSW 4.6 mph - N/A   Unknown
9:55 AM 60.8 °F 55.4 °F 82% 30.09 in 10.0 mi WSW 3.5 mph - N/A   Unknown
9:56 AM 60.8 °F 55.4 °F 82% 30.09 in 10.0 mi WSW 3.5 mph - N/A   Unknown
10:15 AM 62.6 °F 57.2 °F 82% 30.09 in 10.0 mi WSW 4.6 mph - N/A   Unknown
10:16 AM 62.6 °F 57.2 °F 82% 30.09 in 10.0 mi WSW 3.5 mph - N/A   Unknown
10:35 AM 62.6 °F 57.2 °F 82% 30.08 in 10.0 mi WSW 5.8 mph - N/A   Unknown
10:57 AM 62.6 °F 57.2 °F 82% 30.07 in 10.0 mi WSW 8.1 mph - N/A   Unknown
11:16 AM 62.6 °F 57.2 °F 82% 30.06 in 10.0 mi WSW 9.2 mph - N/A   Unknown
11:35 AM 64.4 °F 57.2 °F 77% 30.05 in 10.0 mi WSW 11.5 mph - N/A   Unknown
11:36 AM 64.4 °F 57.2 °F 77% 30.04 in 10.0 mi WSW 10.4 mph - N/A   Unknown
11:55 AM 64.4 °F 59.0 °F 83% 30.02 in 10.0 mi WSW 11.5 mph 16.1 mph N/A   Unknown
11:59 AM 64.4 °F 59.0 °F 83% 30.02 in 10.0 mi WSW 12.7 mph 16.1 mph N/A   Unknown
12:17 PM 68.0 °F 59.0 °F 73% 30.01 in 10.0 mi WSW 17.3 mph 23.0 mph N/A   Unknown
12:35 PM 68.0 °F 59.0 °F 73% 29.99 in 10.0 mi WSW 13.8 mph 23.0 mph N/A   Unknown
12:55 PM 68.0 °F 59.0 °F 73% 29.99 in 10.0 mi WSW 19.6 mph 25.3 mph N/A   Unknown
12:56 PM 68.0 °F 59.0 °F 73% 29.99 in 10.0 mi WSW 19.6 mph 25.3 mph N/A   Unknown
1:15 PM 69.8 °F 60.8 °F 73% 29.98 in 10.0 mi WSW 15.0 mph 20.7 mph N/A   Unknown
1:16 PM 69.8 °F 60.8 °F 73% 29.98 in 10.0 mi WSW 15.0 mph 20.7 mph N/A   Unknown
1:38 PM 71.6 °F 60.8 °F 69% 29.98 in 10.0 mi WSW 12.7 mph - N/A   Unknown
1:56 PM 71.6 °F 60.8 °F 69% 29.97 in 10.0 mi WSW 17.3 mph - N/A   Unknown
2:15 PM 71.6 °F 60.8 °F 69% 29.97 in 10.0 mi WSW 17.3 mph 21.9 mph N/A   Unknown
2:16 PM 71.6 °F 60.8 °F 69% 29.97 in 10.0 mi WSW 17.3 mph 21.9 mph N/A   Unknown
2:35 PM 73.4 °F 60.8 °F 65% 29.95 in 10.0 mi WSW 12.7 mph 18.4 mph N/A   Unknown
2:36 PM 73.4 °F 60.8 °F 65% 29.95 in 10.0 mi WSW 13.8 mph 18.4 mph N/A   Unknown
2:55 PM 73.4 °F 60.8 °F 65% 29.95 in 10.0 mi WSW 17.3 mph 23.0 mph N/A   Unknown
2:59 PM 73.4 °F 60.8 °F 65% 29.95 in 10.0 mi WSW 17.3 mph 23.0 mph N/A   Unknown
3:17 PM 73.4 °F 60.8 °F 65% 29.94 in 10.0 mi WSW 13.8 mph 19.6 mph N/A   Unknown
3:35 PM 73.4 °F 62.6 °F 69% 29.93 in 10.0 mi WSW 12.7 mph 17.3 mph N/A   Unknown
3:55 PM 73.4 °F 60.8 °F 65% 29.92 in 10.0 mi WSW 12.7 mph 18.4 mph N/A   Unknown
3:56 PM 73.4 °F 60.8 °F 65% 29.92 in 10.0 mi WSW 11.5 mph 18.4 mph N/A   Unknown
4:15 PM 73.4 °F 62.6 °F 69% 29.93 in 10.0 mi WSW 6.9 mph - N/A   Unknown
4:38 PM 73.4 °F 62.6 °F 69% 29.92 in 10.0 mi WSW 5.8 mph - N/A   Unknown
4:57 PM 73.4 °F 64.4 °F 73% 29.92 in 10.0 mi Calm Calm - N/A   Unknown
5:16 PM 71.6 °F 64.4 °F 78% 29.92 in 10.0 mi WSW 3.5 mph - N/A   Unknown
5:35 PM 71.6 °F 64.4 °F 78% 29.92 in 10.0 mi Calm Calm - N/A   Unknown
5:36 PM 71.6 °F 64.4 °F 78% 29.92 in 10.0 mi Calm Calm - N/A   Unknown
5:55 PM 71.6 °F 64.4 °F 78% 29.92 in 10.0 mi WSW 3.5 mph - N/A   Unknown
5:59 PM 71.6 °F 64.4 °F 78% 29.92 in 10.0 mi WSW 4.6 mph - N/A   Unknown
6:16 PM 73.4 °F 64.4 °F 73% 29.91 in 10.0 mi WSW 5.8 mph - N/A   Unknown
6:35 PM 73.4 °F 64.4 °F 73% 29.90 in 10.0 mi WSW 3.5 mph - N/A   Unknown
6:36 PM 73.4 °F 64.4 °F 73% 29.90 in 10.0 mi WSW 3.5 mph - N/A   Unknown
6:55 PM 71.6 °F 66.2 °F 83% 29.90 in 10.0 mi Calm Calm - N/A   Unknown
6:56 PM 71.6 °F 66.2 °F 83% 29.90 in 10.0 mi Calm Calm - N/A   Unknown
7:15 PM 71.6 °F 66.2 °F 83% 29.90 in 10.0 mi WSW 3.5 mph - N/A   Unknown
7:37 PM 71.6 °F 66.2 °F 83% 29.90 in 10.0 mi Calm Calm - N/A   Unknown
7:55 PM 69.8 °F 66.2 °F 88% 29.90 in 10.0 mi Calm Calm - N/A   Unknown
8:15 PM 68.0 °F 64.4 °F 88% 29.90 in 10.0 mi Calm Calm - N/A   Unknown
8:35 PM 64.4 °F 64.4 °F 100% 29.90 in 10.0 mi Calm Calm - N/A   Unknown
8:36 PM 64.4 °F 64.4 °F 100% 29.90 in 10.0 mi Calm Calm - N/A   Unknown
8:59 PM 68.0 °F 64.4 °F 88% 29.90 in 10.0 mi WSW 3.5 mph - N/A   Unknown
9:16 PM 66.2 °F 64.4 °F 94% 29.90 in 10.0 mi Calm Calm - N/A   Unknown
9:36 PM 66.2 °F 64.4 °F 94% 29.89 in 10.0 mi WSW 3.5 mph - N/A   Unknown
9:55 PM 71.6 °F 66.2 °F 83% 29.91 in 10.0 mi WSW 15.0 mph 20.7 mph N/A   Unknown
9:56 PM 71.6 °F 64.4 °F 78% 29.91 in 10.0 mi WSW 15.0 mph 20.7 mph N/A   Unknown
10:15 PM 69.8 °F 60.8 °F 73% 29.92 in 10.0 mi WSW 12.7 mph 19.6 mph N/A   Unknown
10:20 PM 69.8 °F 60.8 °F 73% 29.92 in 10.0 mi WSW 10.4 mph 19.6 mph N/A   Unknown
10:37 PM 68.0 °F 60.8 °F 78% 29.92 in 10.0 mi WSW 12.7 mph 18.4 mph N/A   Unknown
10:55 PM 68.0 °F 60.8 °F 78% 29.92 in 10.0 mi WSW 10.4 mph 21.9 mph N/A   Unknown
11:15 PM 68.0 °F 60.8 °F 78% 29.92 in 10.0 mi WSW 9.2 mph - N/A   Unknown
11:16 PM 68.0 °F 60.8 °F 78% 29.92 in 10.0 mi WSW 10.4 mph - N/A   Unknown
11:35 PM 68.0 °F 60.8 °F 78% 29.93 in 10.0 mi WSW 11.5 mph 17.3 mph N/A   Unknown
11:36 PM 68.0 °F 60.8 °F 78% 29.93 in 10.0 mi WSW 11.5 mph 17.3 mph N/A   Unknown
11:58 PM 68.0 °F 60.8 °F 78% 29.93 in 10.0 mi WSW 11.5 mph - N/A   Unknown